This demonstration page uses our WeatherBlox Daily Observations layout. Learn more.

38.80484, -77.04692

Hourly Observations for April 5, 2019

Temp ( °F °C ) Dew Point ( °F °C ) Humidity (%) Winds ( mph kmh ) Pressure ( in mb ) Visibility ( mi km ) Precip ( " mm )
12:52 am 00:52 Cloudy 55 12.8 33 0.6 44 44 ENE 3 6 30.36 1028 10 16.0934 0 0
1:52 am 01:52 Cloudy 54 12.2 38 3.3 55 55 E 6 9 30.35 1028 10 16.0934 0 0
2:52 am 02:52 Cloudy 52 11.1 36 2.2 55 55 ENE 7 11 30.35 1028 10 16.0934 0 0
3:52 am 03:52 Cloudy 52 11.1 37 2.8 57 57 NE 9 15 30.33 1027 10 16.0934 0 0
5:52 am 05:52 Cloudy with Light Rain 51 10.6 40 4.4 66 66 E 6 9 30.37 1028 10 16.0934 0.02 0.508
6:52 am 06:52 Cloudy with Light Rain 50 10 39 3.9 66 66 ENE 9 15 30.37 1029 10 16.0934 0.01 0.254
7:52 am 07:52 Cloudy with Light Rain 49 9.4 39 3.9 69 69 ENE 8 13 30.38 1029 10 16.0934 0.03 0.762
8:52 am 08:52 Cloudy with Light Rain 49 9.4 36 2.2 61 61 ESE 7 11 30.39 1029 10 16.0934 0 0.0254
9:52 am 09:52 Cloudy with Light Rain 49 9.4 36 2.2 61 61 E 12 19 30.38 1029 10 16.0934 0 0.0254
10:52 am 10:52 Cloudy with Light Rain 48 8.9 35 1.7 61 61 E 13 20 30.39 1029 10 16.0934 0.01 0.254
11:52 am 11:52 Cloudy with Light Rain 49 9.4 38 3.3 66 66 E 8 13 30.36 1028 10 16.0934 0.01 0.254
12:05 pm 12:05 Cloudy with Light Rain 49 9.4 38 3.3 66 66 ESE 10 17 30.36 1028 10 16.0934 0 0.0254
12:38 pm 12:38 Cloudy with Light Rain 49 9.4 39 3.9 69 69 E 12 19 30.34 1027 10 16.0934 0 0.0254
12:52 pm 12:52 Cloudy with Light Rain 49 9.4 40 4.4 71 71 ESE 10 17 30.33 1027 10 16.0934 0 0.0254
1:52 pm 13:52 Cloudy 50 10 41 5 71 71 E 12 19 30.29 1026 10 16.0934 0 0.0254
2:30 pm 14:30 Cloudy 50 10 41 5 71 71 ENE 9 15 30.28 1025 10 16.0934 0 0.0254
2:52 pm 14:52 Cloudy 51 10.6 41 5 69 69 ENE 6 9 30.27 1025 10 16.0934 0 0.0254
3:36 pm 15:36 Cloudy with Light Rain 51 10.6 42 5.6 71 71 E 7 11 30.25 1024 7 11.26538 0 0.0254
3:52 pm 15:52 Cloudy with Light Rain 51 10.6 43 6.1 74 74 E 3 6 30.24 1024 10 16.0934 0 0.0254
4:52 pm 16:52 Cloudy with Light Rain 51 10.6 43 6.1 74 74 NE 8 13 30.23 1024 10 16.0934 0 0.0254
5:52 pm 17:52 Cloudy with Light Rain 50 10 44 6.7 80 80 NNW 9 15 30.25 1024 9 14.48406 0.01 0.254
6:52 pm 18:52 Cloudy 50 10 44 6.7 80 80 NNE 7 11 30.24 1024 10 16.0934 0 0.0254
7:52 pm 19:52 Cloudy 50 10 44 6.7 80 80 NNE 8 13 30.23 1024 10 16.0934 0 0
8:52 pm 20:52 Cloudy 50 10 44 6.7 80 80 N 6 9 30.24 1024 10 16.0934 0 0
9:52 pm 21:52 Cloudy 50 10 42 5.6 74 74 NE 8 13 30.24 1024 10 16.0934 0 0
10:52 pm 22:52 Cloudy 49 9.4 42 5.6 77 77 NNE 9 15 30.24 1024 10 16.0934 0 0
11:11 pm 23:11 Cloudy with Light Rain 48 8.9 42 5.6 80 80 NNE 8 13 30.24 1024 10 16.0934 0 0.0254
11:52 pm 23:52 Cloudy 47 8.3 43 6.1 86 86 NNE 8 13 30.23 1024 8 12.87472 0 0.0254

Powered by AerisWeather